Location: Ash Swamp
(41.5170°N, 74.6157°W)
Time: 02:47:21
(UTC+00:00)

USA 215 - Pass Details

Date: 14 July 2020
Orbit: 1102 x 1106 km, 123.0° (Epoch: 08 August)

Event Time Altitude Azimuth Distance (km) Brightness Sun altitude
Rises 01:49:15 0° 60° (ENE) 3,922 6.0 -12.4°
Reaches altitude 10° 01:52:30 10° 76° (ENE) 2,960 5.2 -12.8°
Maximum altitude 01:57:10 21° 122° (ESE) 2,270 4.3 -13.4°
Enters shadow 01:59:16 18° 147° (SSE) 2,424 4.4 -13.7°
